When you browse on this site, cookies collect data to enhance your experience and personalize the content and advertising you see.
Visit our Privacy Policy to learn more. By continuing to use the site, you agree to this use of cookies and data.
  • En España
  • Lista de países
  • Para 7 días
  • Temperatura del agua
  • Mapa Satelital
  • El tiempo en el mapa
  • Informadores
  • user-avatar
    Iniciar sesión

    Tiempo cada hora Kerewan

    Hoy, 16 Enero, Miércoles

    Tiempo Temperatura Precipitaciones Viento Presión Humedad
    00:00 +27°C° 0 mm 4 mps 758 mmHg 26%
    01:00 +26°C° 0 mm 4 mps 758 mmHg 27%
    02:00 +25°C° 0 mm 3 mps 758 mmHg 27%
    03:00 +25°C° 0 mm 3 mps 758 mmHg 26%
    04:00 +24°C° 0 mm 3 mps 758 mmHg 26%
    05:00 +23°C° 0 mm 2 mps 757 mmHg 25%
    06:00 +24°C° 0 mm 2 mps 758 mmHg 23%
    07:00 +25°C° 0 mm 3 mps 758 mmHg 21%
    08:00 +25°C° 0 mm 3 mps 758 mmHg 19%
    09:00 +29°C° 0 mm 3 mps 758 mmHg 15%
    10:00 +33°C° 0 mm 3 mps 758 mmHg 12%
    11:00 +36°C° 0 mm 3 mps 758 mmHg 8%
    12:00 +37°C° 0 mm 3 mps 757 mmHg 8%
    13:00 +39°C° 0 mm 3 mps 757 mmHg 7%
    14:00 +40°C° 0 mm 3 mps 756 mmHg 7%
    15:00 +39°C° 0 mm 3 mps 756 mmHg 8%
    16:00 +39°C° 0 mm 3 mps 756 mmHg 10%
    17:00 +38°C° 0 mm 3 mps 756 mmHg 11%
    18:00 +36°C° 0 mm 3 mps 756 mmHg 17%
    19:00 +33°C° 0 mm 4 mps 757 mmHg 23%
    20:00 +30°C° 0 mm 4 mps 757 mmHg 29%
    21:00 +29°C° 0 mm 4 mps 757 mmHg 29%
    22:00 +28°C° 0 mm 4 mps 757 mmHg 29%
    23:00 +27°C° 0 mm 4 mps 758 mmHg 29%

    Mañana, 17 Enero, Jueves

    Tiempo Temperatura Precipitaciones Viento Presión Humedad
    00:00 +26°C° 0 mm 4 mps 757 mmHg 30%
    01:00 +25°C° 0 mm 4 mps 757 mmHg 31%
    02:00 +23°C° 0 mm 4 mps 757 mmHg 32%
    03:00 +24°C° 0 mm 3 mps 757 mmHg 33%
    04:00 +22°C° 0 mm 3 mps 757 mmHg 34%
    05:00 +23°C° 0 mm 2 mps 757 mmHg 35%
    06:00 +23°C° 0 mm 2 mps 758 mmHg 33%
    07:00 +24°C° 0 mm 2 mps 758 mmHg 31%
    08:00 +24°C° 0 mm 2 mps 758 mmHg 29%
    09:00 +27°C° 0 mm 2 mps 758 mmHg 23%
    10:00 +30°C° 0 mm 2 mps 758 mmHg 18%
    11:00 +34°C° 0 mm 3 mps 758 mmHg 12%
    12:00 +36°C° 0 mm 3 mps 757 mmHg 11%
    13:00 +37°C° 0 mm 3 mps 757 mmHg 10%
    14:00 +39°C° 0 mm 2 mps 756 mmHg 9%
    15:00 +38°C° 0 mm 3 mps 756 mmHg 12%
    16:00 +37°C° 0 mm 4 mps 756 mmHg 15%
    17:00 +36°C° 0 mm 4 mps 755 mmHg 18%
    18:00 +34°C° 0 mm 4 mps 756 mmHg 26%
    19:00 +30°C° 0 mm 4 mps 757 mmHg 34%
    20:00 +28°C° 0 mm 4 mps 757 mmHg 42%
    21:00 +27°C° 0 mm 4 mps 757 mmHg 36%
    22:00 +27°C° 0 mm 4 mps 758 mmHg 31%
    23:00 +26°C° 0 mm 4 mps 758 mmHg 25%

    Pasado mañana, 18 Enero, Viernes

    Tiempo Temperatura Precipitaciones Viento Presión Humedad
    00:00 +25°C° 0 mm 4 mps 758 mmHg 27%
    01:00 +25°C° 0 mm 4 mps 758 mmHg 28%
    02:00 +23°C° 0 mm 4 mps 757 mmHg 30%
    03:00 +22°C° 0 mm 4 mps 757 mmHg 29%
    04:00 +22°C° 0 mm 4 mps 757 mmHg 28%
    05:00 +21°C° 0 mm 4 mps 757 mmHg 27%
    06:00 +22°C° 0 mm 4 mps 758 mmHg 23%
    07:00 +22°C° 0 mm 5 mps 758 mmHg 20%
    08:00 +23°C° 0 mm 5 mps 759 mmHg 17%
    09:00 +26°C° 0 mm 5 mps 759 mmHg 14%
    10:00 +29°C° 0 mm 5 mps 759 mmHg 11%
    11:00 +32°C° 0 mm 5 mps 759 mmHg 8%
    12:00 +34°C° 0 mm 5 mps 758 mmHg 8%
    13:00 +35°C° 0 mm 5 mps 757 mmHg 8%
    14:00 +36°C° 0 mm 5 mps 757 mmHg 7%
    15:00 +36°C° 0 mm 5 mps 757 mmHg 8%
    16:00 +35°C° 0 mm 5 mps 757 mmHg 9%
    17:00 +35°C° 0 mm 5 mps 757 mmHg 9%
    18:00 +33°C° 0 mm 5 mps 757 mmHg 11%
    19:00 +30°C° 0 mm 5 mps 758 mmHg 12%
    20:00 +28°C° 0 mm 5 mps 758 mmHg 13%
    21:00 +27°C° 0 mm 5 mps 759 mmHg 15%
    22:00 +27°C° 0 mm 5 mps 759 mmHg 16%
    23:00 +26°C° 0 mm 5 mps 759 mmHg 17%

    19 Enero, Sábado

    Tiempo Temperatura Precipitaciones Viento Presión Humedad
    00:00 +25°C° 0 mm 5 mps 759 mmHg 18%
    01:00 +23°C° 0 mm 5 mps 759 mmHg 20%
    02:00 +22°C° 0 mm 5 mps 759 mmHg 21%
    03:00 +22°C° 0 mm 5 mps 759 mmHg 22%
    04:00 +21°C° 0 mm 5 mps 759 mmHg 23%
    05:00 +21°C° 0 mm 5 mps 759 mmHg 24%
    06:00 +21°C° 0 mm 5 mps 759 mmHg 24%
    07:00 +22°C° 0 mm 6 mps 760 mmHg 24%
    08:00 +22°C° 0 mm 7 mps 761 mmHg 25%
    09:00 +24°C° 0 mm 7 mps 760 mmHg 22%
    10:00 +27°C° 0 mm 7 mps 760 mmHg 20%
    11:00 +29°C° 0 mm 6 mps 760 mmHg 18%
    12:00 +30°C° 0 mm 6 mps 759 mmHg 16%
    13:00 +33°C° 0 mm 6 mps 758 mmHg 15%
    14:00 +34°C° 0 mm 5 mps 758 mmHg 13%
    15:00 +34°C° 0 mm 5 mps 757 mmHg 13%
    16:00 +34°C° 0 mm 5 mps 757 mmHg 12%
    17:00 +33°C° 0 mm 4 mps 757 mmHg 12%
    18:00 +32°C° 0 mm 4 mps 758 mmHg 13%
    19:00 +29°C° 0 mm 3 mps 758 mmHg 14%
    20:00 +27°C° 0 mm 3 mps 759 mmHg 15%
    21:00 +26°C° 0 mm 3 mps 759 mmHg 14%
    22:00 +25°C° 0 mm 4 mps 760 mmHg 14%
    23:00 +25°C° 0 mm 4 mps 760 mmHg 14%

    20 Enero, Domingo

    Tiempo Temperatura Precipitaciones Viento Presión Humedad
    00:00 +23°C° 0 mm 4 mps 759 mmHg 15%
    01:00 +22°C° 0 mm 4 mps 759 mmHg 15%
    02:00 +21°C° 0 mm 4 mps 759 mmHg 16%
    03:00 +21°C° 0 mm 4 mps 759 mmHg 16%
    04:00 +20°C° 0 mm 4 mps 759 mmHg 17%
    05:00 +20°C° 0 mm 4 mps 759 mmHg 17%
    06:00 +20°C° 0 mm 4 mps 760 mmHg 17%
    07:00 +21°C° 0 mm 5 mps 760 mmHg 17%
    08:00 +21°C° 0 mm 5 mps 761 mmHg 16%
    09:00 +25°C° 0 mm 5 mps 760 mmHg 15%
    10:00 +28°C° 0 mm 5 mps 760 mmHg 13%
    11:00 +30°C° 0 mm 5 mps 760 mmHg 11%
    12:00 +33°C° 0 mm 5 mps 759 mmHg 10%
    13:00 +34°C° 0 mm 4 mps 758 mmHg 10%
    14:00 +36°C° 0 mm 4 mps 757 mmHg 9%
    15:00 +36°C° 0 mm 4 mps 757 mmHg 9%
    16:00 +35°C° 0 mm 3 mps 757 mmHg 9%
    17:00 +35°C° 0 mm 3 mps 757 mmHg 9%
    18:00 +33°C° 0 mm 3 mps 758 mmHg 10%
    19:00 +30°C° 0 mm 3 mps 759 mmHg 11%
    20:00 +28°C° 0 mm 2 mps 759 mmHg 11%
    21:00 +27°C° 0 mm 3 mps 759 mmHg 11%
    22:00 +26°C° 0 mm 3 mps 760 mmHg 11%
    23:00 +25°C° 0 mm 4 mps 760 mmHg 11%

    21 Enero, Lunes

    Tiempo Temperatura Precipitaciones Viento Presión Humedad
    00:00 +25°C° 0 mm 4 mps 759 mmHg 10%
    01:00 +23°C° 0 mm 4 mps 759 mmHg 10%
    02:00 +23°C° 0 mm 4 mps 759 mmHg 9%
    03:00 +22°C° 0 mm 4 mps 759 mmHg 9%
    04:00 +21°C° 0 mm 4 mps 759 mmHg 8%
    05:00 +21°C° 0 mm 4 mps 759 mmHg 8%
    06:00 +21°C° 0 mm 4 mps 759 mmHg 8%
    07:00 +22°C° 0 mm 5 mps 760 mmHg 8%
    08:00 +22°C° 0 mm 5 mps 760 mmHg 7%
    09:00 +26°C° 0 mm 5 mps 760 mmHg 7%
    10:00 +29°C° 0 mm 5 mps 760 mmHg 6%
    11:00 +32°C° 0 mm 5 mps 760 mmHg 6%
    12:00 +33°C° 0 mm 5 mps 759 mmHg 6%
    13:00 +35°C° 0 mm 4 mps 758 mmHg 6%
    14:00 +36°C° 0 mm 4 mps 757 mmHg 6%
    15:00 +36°C° 0 mm 4 mps 757 mmHg 6%
    16:00 +36°C° 0 mm 3 mps 757 mmHg 6%
    17:00 +35°C° 0 mm 3 mps 757 mmHg 6%
    18:00 +34°C° 0 mm 3 mps 757 mmHg 6%
    19:00 +31°C° 0 mm 3 mps 758 mmHg 7%
    20:00 +29°C° 0 mm 3 mps 758 mmHg 7%
    21:00 +28°C° 0 mm 3 mps 759 mmHg 7%
    22:00 +27°C° 0 mm 3 mps 759 mmHg 6%
    23:00 +26°C° 0 mm 4 mps 759 mmHg 6%
    Mostrar más